Location: Pittman
(37.9557°N, 80.9209°W)
Time: 14:38:41
(UTC+00:00)

Envisat - Pass Details

Date: 25 April 2026
Orbit: 761 x 762 km, 98.4° (Epoch: 15 May)

Event Time Altitude Azimuth Distance (km) Brightness Sun altitude
Rises 08:19:41 0° 8° (N) 3,230 7.0 -24.0°
Reaches altitude 10° 08:22:01 10° 5° (N) 2,300 6.0 -23.6°
Maximum altitude 08:26:59 59° 287° (WNW) 881 3.1 -22.9°
Enters shadow 08:27:33 55° 258° (WSW) 913 3.0 -22.8°
